Location: *
(46.0770°N, 1.6444°E)
Time: 02:10:57
(UTC+00:00)

Meteor 2-5 Rocket - Pass Details

Date: 16 September 2019
Orbit: 834 x 911 km, 81.2° (Epoch: 18 October)

Event Time Altitude Azimuth Distance (km) Brightness Sun altitude
Rises 19:58:48 0° 351° (N) 3,473 7.4 -20.0°
Reaches altitude 10° 20:01:16 10° 355° (N) 2,543 6.6 -20.4°
Maximum altitude 20:07:01 62° 76° (ENE) 1,003 3.8 -21.3°
Enters shadow 20:08:51 42° 136° (SE) 1,256 4.1 -21.6°
